Location: Newark
(45.2500°N, 7.5833°E)
Time: 14:28:27
(UTC+00:00)

First-Move - Pass Details

Date: 23 February 2020
Orbit: 576 x 669 km, 97.6° (Epoch: 06 April)

Event Time Altitude Azimuth Distance (km) Brightness Sun altitude
Rises 05:00:02 0° 20° (NNE) 3,025 ? -14.7°
Reaches altitude 10° 05:02:26 10° 29° (NNE) 2,106 ? -14.2°
Maximum altitude 05:06:42 36° 96° (E) 1,052 ? -13.5°
Drops below altitude 10° 05:10:53 10° 164° (SSE) 2,071 ? -12.8°
Sets 05:13:14 0° 172° (S) 2,967 ? -12.3°
